Weather History for KANB - September, 2012

Change the Weather History Date:

Wednesday, September 5, 2012

  Actual Average Record
Temperature  
Mean Temperature 79 °F 77 °F  
Max Temperature 88 °F 87 °F 100 °F (1954)
Min Temperature 70 °F 67 °F 51 °F (1905)
Degree Days  
Heating Degree Days 0    
Month to date heating degree days 0  
Since 1 July heating degree days 0  
Cooling Degree Days 13    
Growing Degree Days 28 (Base 50)    
Moisture  
Dew Point 72 °F    
Average Humidity 78    
Maximum Humidity 100    
Minimum Humidity 55    
Precipitation  
Precipitation 0.00 in 0.10 in 3.00 in (1961)
Month to date precipitation 1.02 0.50  
Year to date precipitation 33.54 35.42  
Sea Level Pressure  
Sea Level Pressure 29.91 in    
Wind  
Wind Speed 2 mph (East)    
Max Wind Speed 10 mph    
Max Gust Speed 15 mph    
Visibility 10 miles    
Events      
T = Trace of Precipitation, MM = Missing Value Source: NWS Daily Summary

Daily Weather History Graph

Daily Weather History Graph

Search for Another Location

Airport or City:

Trip Planner

Search our weather history database for the weather conditions in past years. The results will help you decide how hot, cold, wet, or windy it might be!

Date:

Astronomy

Sep. 05, 2012 Rise Set
Actual Time 6:20 AM CDT 7:02 PM CDT
Civil Twilight 5:55 AM CDT 7:28 PM CDT
Nautical Twilight 5:25 AM CDT 7:57 PM CDT
Astronomical Twilight 4:55 AM CDT 8:28 PM CDT
Moon 9:51 PM CDT (9/5) 11:05 AM CDT (9/5)
Length of Visible Light 13h 32m
Length of Day
12h 42m
Waning Gibbous, 76% of the Moon is Illuminated
Sep 5
Waning Gibbous
Sep 8
Last Quarter
Sep 15
New
Sep 22
First Quarter
Sep 29
Full

Hourly Weather History & Observations

Time (CDT) Temp. Heat Index Dew Point Humidity Pressure Visibility Wind Dir Wind Speed Gust Speed Precip Events Conditions
12:14 AM 73.4 °F - 73.4 °F 100% 29.92 in 9.0 mi Calm Calm - N/A   Overcast
12:32 AM 73.4 °F - 73.4 °F 100% 29.92 in 10.0 mi Calm Calm - N/A   Overcast
12:44 AM 73.4 °F - 73.4 °F 100% 29.91 in 10.0 mi Calm Calm - N/A   Overcast
12:53 AM 73.9 °F - 73.0 °F 97% 29.89 in 7.0 mi Calm Calm - N/A   Overcast
1:53 AM 73.9 °F - 72.0 °F 93% 29.89 in 10.0 mi ENE 3.5 mph - N/A   Overcast
2:00 AM 73.4 °F - 71.6 °F 94% 29.91 in 10.0 mi East 3.5 mph - N/A   Overcast
2:28 AM 71.6 °F - 69.8 °F 94% 29.91 in 10.0 mi ENE 3.5 mph - N/A   Scattered Clouds
2:53 AM 72.0 °F - 70.0 °F 93% 29.88 in 10.0 mi Calm Calm - N/A   Mostly Cloudy
3:53 AM 72.0 °F - 70.0 °F 93% 29.89 in 10.0 mi Calm Calm - N/A   Overcast
4:53 AM 71.1 °F - 70.0 °F 96% 29.91 in 10.0 mi Calm Calm - N/A   Scattered Clouds
5:53 AM 70.0 °F - 69.1 °F 97% 29.91 in 9.0 mi Calm Calm - N/A   Clear
6:18 AM 69.8 °F - 69.8 °F 100% 29.94 in 9.0 mi Calm Calm - N/A   Mostly Cloudy
6:53 AM 71.1 °F - 70.0 °F 96% 29.93 in 6.0 mi Calm Calm - N/A   Mostly Cloudy
7:08 AM 71.6 °F - 69.8 °F 94% 29.95 in 7.0 mi Calm Calm - N/A   Scattered Clouds
7:53 AM 73.9 °F - 71.1 °F 91% 29.94 in 10.0 mi ENE 3.5 mph - N/A   Clear
8:53 AM 75.9 °F - 71.1 °F 85% 29.93 in 10.0 mi East 6.9 mph - N/A   Partly Cloudy
9:53 AM 79.0 °F - 72.0 °F 79% 29.94 in 10.0 mi East 5.8 mph - N/A   Partly Cloudy
10:26 AM 82.4 °F 87.2 °F 71.6 °F 70% 29.96 in 10.0 mi ESE 6.9 mph - N/A   Mostly Cloudy
10:53 AM 82.0 °F 86.7 °F 72.0 °F 71% 29.93 in 10.0 mi East 6.9 mph - N/A   Mostly Cloudy
11:12 AM 82.4 °F 87.2 °F 71.6 °F 70% 29.96 in 10.0 mi Variable 5.8 mph - N/A   Partly Cloudy
11:53 AM 82.9 °F 88.0 °F 72.0 °F 69% 29.92 in 10.0 mi ESE 5.8 mph - N/A   Overcast
12:53 PM 84.0 °F 89.0 °F 71.1 °F 65% 29.90 in 10.0 mi ESE 5.8 mph - N/A   Mostly Cloudy
1:53 PM 84.0 °F 89.0 °F 71.1 °F 65% 29.89 in 10.0 mi Variable 4.6 mph - N/A   Mostly Cloudy
2:53 PM 84.0 °F 89.0 °F 71.1 °F 65% 29.87 in 10.0 mi East 3.5 mph - N/A   Mostly Cloudy
3:53 PM 87.1 °F 91.3 °F 69.1 °F 55% 29.86 in 10.0 mi Calm Calm - N/A   Clear
4:53 PM 82.9 °F 88.0 °F 72.0 °F 69% 29.86 in 10.0 mi SSE 4.6 mph - N/A   Mostly Cloudy
5:53 PM 84.9 °F 90.7 °F 72.0 °F 65% 29.86 in 10.0 mi South 3.5 mph - N/A   Mostly Cloudy
6:53 PM 80.1 °F 85.1 °F 75.0 °F 85% 29.85 in 10.0 mi Calm Calm - N/A   Clear
7:53 PM 77.0 °F - 73.9 °F 90% 29.87 in 10.0 mi Calm Calm - N/A   Clear
8:53 PM 75.0 °F - 73.0 °F 94% 29.88 in 10.0 mi Calm Calm - N/A   Clear
9:53 PM 73.9 °F - 73.0 °F 97% 29.91 in 10.0 mi Calm Calm - N/A   Clear
10:53 PM 73.9 °F - 72.0 °F 93% 29.92 in 10.0 mi Calm Calm - N/A   Scattered Clouds
11:53 PM 75.0 °F - 73.0 °F 94% 29.92 in 10.0 mi Calm Calm - N/A   Overcast